1486893600.14,12872,11.19,74070.5,9.57,-30.51,-30.83,0,*77
1486893601.37,12873,11.13,74070.3,9.55,-30.67,-30.89,0,*7B
1486893602.59,12874,11.19,74070.0,9.55,-31.23,-31.67,0,*7C
1486893603.84,12875,11.19,74070.8,9.57,-31.17,-31.51,0,*7D
1486893605.09,12876,11.13,74070.5,9.55,-31.57,-31.91,0,*74
1486893606.34,12877,11.19,74072.5,9.55,-30.77,-30.89,0,*7E
1486893607.62,12878,11.19,74070.0,9.57,-30.61,-30.89,0,*74
1486893608.82,12879,11.19,74072.0,9.55,-30.33,-30.67,0,*70
1486893610.07,12880,11.19,74068.8,9.57,-30.89,-31.05,0,*70
1486893611.33,12881,11.19,74070.0,9.57,-30.51,-30.83,0,*7B
1486893612.61,12882,11.19,74068.3,9.57,-30.51,-30.77,0,*73
1486893613.86,12883,11.13,74070.3,9.57,-30.61,-30.83,0,*7A
1486893615.09,12884,11.19,74072.0,9.55,-30.27,-30.51,0,*72
1486893616.36,12885,11.19,74068.3,9.57,-30.17,-30.51,0,*72
1486893617.62,12886,11.19,74068.5,9.57,-30.67,-30.89,0,*73
1486893618.82,12887,11.13,74068.0,9.55,-30.67,-31.05,0,*75
1486893620.05,12888,11.19,74068.5,9.57,-30.83,-31.01,0,*76
1486893621.3,12889,11.19,74068.5,9.57,-30.51,-30.83,0,*73
1486893622.58,12890,11.19,74070.5,9.61,-30.55,-30.77,0,*71
1486893623.83,12891,11.19,74068.8,9.59,-30.77,-31.11,0,*7A
1486893625.05,12892,11.13,74068.0,9.59,-30.95,-31.33,0,*75
1486893626.3,12893,11.19,74068.0,9.57,-30.77,-31.01,0,*77
1486893627.52,12894,11.19,74068.3,9.57,-31.01,-31.33,0,*71
1486893628.72,12895,11.19,74068.3,9.55,-31.01,-31.17,0,*74
1486893629.97,12896,11.19,74068.5,9.57,-30.33,-30.77,0,*72
1486893631.2,12897,11.19,74068.0,9.59,-30.55,-30.83,0,*76
1486893632.42,12898,11.19,74072.5,9.59,-31.33,-31.85,0,*7F
1486893633.69,12899,11.13,74068.3,9.57,-31.39,-31.57,0,*75
1486893634.95,12900,11.19,74070.0,9.57,-30.33,-30.77,0,*7C
1486893636.2,12901,11.13,74070.0,9.57,-30.61,-30.83,0,*71
1486893637.4,12902,11.19,74070.3,9.59,-31.01,-31.33,0,*71
1486893638.63,12903,11.19,74070.3,9.59,-30.73,-30.83,0,*7E
1486893639.83,12904,11.13,74068.5,9.59,-31.33,-31.79,0,*78
1486893641.03,12905,11.13,74070.0,9.59,-30.83,-31.17,0,*7B
1486893642.24,12906,11.13,74070.5,9.59,-30.83,-31.17,0,*78
1486893643.47,12907,11.19,74072.3,9.57,-30.83,-31.33,0,*71
1486893644.69,12908,11.19,74070.8,9.57,-31.33,-31.67,0,*75
1486893645.96,12909,11.19,74068.5,9.57,-31.39,-31.85,0,*72
1486893647.18,12910,11.13,74068.3,9.57,-30.83,-31.33,0,*77
1486893648.42,12911,11.13,74070.5,9.57,-31.05,-31.57,0,*7B
1486893649.7,12912,11.19,74068.8,9.57,-32.29,-32.79,0,*7A
1486893650.92,12913,11.19,74070.8,9.55,-33.37,-33.89,0,*79
1486893652.17,12914,11.19,74068.3,9.53,-32.79,-33.15,0,*76
1486893653.42,12915,11.19,74070.5,9.53,-32.13,-32.45,0,*7F
1486893654.65,12916,11.13,74068.8,9.49,-32.01,-32.51,0,*71
1486893655.93,12917,11.19,74068.0,9.49,-31.51,-31.95,0,*7D
1486893657.19,12918,11.19,74070.8,9.53,-30.55,-30.95,0,*7D
1486893658.44,12919,11.19,74070.3,9.53,-30.33,-30.55,0,*70
1486893659.69,12920,11.19,74070.8,9.53,-30.67,-30.95,0,*77
1486893660.95,12921,11.19,74068.3,9.49,-30.55,-30.95,0,*7C
1486893662.2,12922,11.13,74068.0,9.49,-30.77,-31.01,0,*73
1486893663.43,12923,11.13,74066.5,9.53,-30.23,-30.67,0,*79
1486893664.69,12924,11.19,74070.5,9.53,-30.55,-30.95,0,*72
1486893665.95,12925,11.13,74068.0,9.53,-31.61,-32.13,0,*79
1486893667.22,12926,11.19,74068.0,9.49,-30.55,-30.89,0,*76
1486893668.47,12927,11.19,74070.0,9.53,-29.89,-30.23,0,*75
1486893669.69,12928,11.19,74068.8,9.55,-30.89,-31.33,0,*74
1486893670.89,12929,11.13,74068.8,9.55,-30.83,-31.01,0,*7E
1486893672.14,12930,11.13,74064.3,9.55,-30.17,-30.61,0,*7C
1486893673.4,12931,11.19,74074.0,9.57,-30.33,-30.61,0,*79
1486893674.64,12932,11.13,74070.0,9.57,-30.01,-30.27,0,*79
1486893675.88,12933,11.13,74070.5,9.57,-30.27,-30.67,0,*78
1486893677.11,12934,11.19,74068.5,9.57,-30.83,-31.01,0,*70
1486893678.38,12935,11.19,74070.3,9.57,-31.51,-31.85,0,*73
1486893679.63,12936,11.19,74070.8,9.57,-30.67,-30.89,0,*79
1486893680.89,12937,11.13,74068.5,9.57,-30.51,-30.83,0,*77
1486893682.14,12938,11.13,74070.5,9.57,-31.05,-31.39,0,*78
1486893683.41,12939,11.13,74068.0,9.57,-31.39,-31.85,0,*71
1486893684.62,12940,11.13,74070.8,9.57,-31.01,-31.33,0,*79
1486893685.85,12941,11.19,74070.3,9.59,-30.77,-31.01,0,*77
1486893687.08,12942,11.19,74070.8,9.59,-32.07,-32.51,0,*77
1486893688.33,12943,11.13,74070.0,9.55,-32.07,-32.29,0,*75
1486893689.58,12944,11.19,74068.8,9.57,-31.05,-31.39,0,*73
1486893690.8,12945,11.13,74066.3,9.55,-31.17,-31.39,0,*73
1486893692.02,12946,11.13,74070.8,9.55,-30.77,-31.01,0,*7C
1486893693.22,12947,11.19,74072.0,9.55,-31.17,-31.33,0,*7B
1486893694.46,12948,11.19,74070.3,9.57,-30.61,-31.01,0,*77
1486893695.69,12949,11.19,74070.0,9.55,-30.61,-30.83,0,*7F
1486893696.92,12950,11.13,74068.0,9.57,-30.83,-31.05,0,*76
1486893698.14,12951,11.13,74070.5,9.57,-30.83,-31.01,0,*73
1486893699.39,12952,11.13,74068.8,9.57,-31.05,-31.39,0,*74
1486893700.61,12953,11.19,74074.0,9.57,-32.91,-33.21,0,*70
1486893701.86,12954,11.13,74068.0,9.55,-33.09,-33.49,0,*7B
1486893703.1,12955,11.13,74066.3,9.55,-32.45,-32.79,0,*71
1486893704.38,12956,11.13,74064.8,9.53,-30.95,-31.11,0,*76
1486893705.63,12957,11.13,74068.8,9.53,-30.83,-30.95,0,*7D
1486893706.88,12958,11.13,74066.3,9.55,-31.57,-31.91,0,*79
1486893708.16,12959,11.13,74068.8,9.53,-32.07,-32.07,0,*74
1486893709.41,12960,11.13,74070.5,9.53,-32.79,-33.21,0,*72
1486893710.67,12961,11.19,74070.8,9.49,-32.01,-32.19,0,*7D
1486893711.89,12962,11.13,74070.0,9.49,-32.51,-32.91,0,*7B
1486893713.12,12963,11.13,74068.3,9.49,-32.01,-32.23,0,*76
1486893714.4,12964,11.13,74070.0,9.53,-30.89,-31.11,0,*7A
1486893715.63,12965,11.13,74068.3,9.53,-30.33,-30.67,0,*7A
1486893716.9,12966,11.19,74072.0,9.49,-30.55,-30.89,0,*72
1486893718.17,12967,11.13,74066.0,9.49,-30.55,-30.89,0,*73
1486893719.39,12968,11.13,74068.3,9.55,-30.01,-30.45,0,*70
1486893720.64,12969,11.13,74068.0,9.49,-30.61,-31.01,0,*7B
1486893721.89,12970,11.13,74068.5,9.55,-30.89,-31.23,0,*78
1486893723.14,12971,11.19,74072.3,9.53,-31.39,-31.79,0,*7A
1486893724.37,12972,11.13,74070.5,9.49,-31.29,-31.45,0,*7C
1486893725.64,12973,11.13,74066.5,9.53,-30.95,-31.39,0,*7B
1486893726.91,12974,11.13,74068.0,9.53,-30.55,-30.95,0,*77
1486893728.11,12975,11.13,74068.8,9.55,-30.45,-30.67,0,*7C
1486893729.33,12976,11.19,74070.0,9.55,-30.33,-30.77,0,*7F
1486893730.58,12977,11.13,74070.8,9.57,-31.01,-31.39,0,*77
1486893731.8,12978,11.13,74068.5,9.55,-32.13,-32.45,0,*72
1486893733.02,12979,11.13,74070.0,9.55,-32.13,-32.45,0,*73
1486893734.24,12980,11.19,74070.3,9.55,-30.89,-31.33,0,*76
1486893735.52,12981,11.13,74070.3,9.53,-30.95,-31.23,0,*7D
1486893736.75,12982,11.19,74070.3,9.53,-30.67,-31.05,0,*77
1486893738.0,12983,11.13,74070.5,9.55,-30.77,-30.89,0,*74
1486893739.23,12984,11.13,74068.8,9.55,-30.51,-30.83,0,*7D
1486893740.46,12985,11.13,74068.5,9.57,-30.33,-30.83,0,*7A
1486893741.74,12986,11.13,74070.3,9.57,-30.17,-30.51,0,*70
1486893742.99,12987,11.13,74068.3,9.57,-30.61,-30.83,0,*7F
1486893744.24,12988,11.13,74068.0,9.59,-30.61,-30.95,0,*79
1486893745.46,12989,11.13,74070.8,9.59,-31.01,-31.51,0,*76
1486893746.66,12990,11.13,74066.0,9.59,-30.83,-31.29,0,*7A
1486893747.91,12991,11.13,74070.8,9.57,-30.77,-31.01,0,*74
1486893749.14,12992,11.13,74070.8,9.57,-29.95,-30.27,0,*76
1486893750.39,12993,11.13,74070.5,9.59,-29.89,-30.05,0,*74
1486893751.6,12994,11.13,74070.3,9.63,-29.83,-30.33,0,*75
1486893752.87,12995,11.13,74068.3,9.61,-30.39,-30.73,0,*7B
1486893754.13,12996,11.13,74070.3,9.61,-30.77,-31.05,0,*72
1486893755.37,12997,11.13,74066.5,9.63,-31.23,-31.73,0,*70
1486893756.65,12998,11.13,74068.0,9.61,-31.39,-31.61,0,*75
1486893757.93,12999,11.13,74068.3,9.61,-30.89,-31.11,0,*79
1486893759.16,13000,11.13,74068.3,9.61,-30.23,-30.67,0,*71
1486893760.41,13001,11.13,74070.5,9.63,-30.39,-30.77,0,*78
1486893761.64,13002,11.13,74070.5,9.65,-30.11,-30.33,0,*77
1486893762.88,13003,11.13,74068.3,9.63,-30.39,-30.73,0,*7E
1486893764.1,13004,11.13,74070.3,9.63,-30.61,-31.05,0,*74
1486893765.33,13005,11.13,74068.8,9.65,-30.67,-31.01,0,*71
1486893766.59,13006,11.13,74068.5,9.65,-29.79,-30.17,0,*73
1486893767.84,13007,11.13,74068.5,9.63,-29.73,-30.01,0,*79
1486893769.11,13008,11.13,74070.0,9.65,-30.17,-30.51,0,*7F
1486893770.37,13009,11.13,74066.8,9.65,-30.61,-30.83,0,*70
1486893771.6,13010,11.13,74070.3,9.65,-29.95,-30.33,0,*70
1486893772.83,13011,11.13,74070.5,9.67,-30.05,-30.45,0,*73
1486893774.07,13012,11.13,74066.8,9.69,-30.11,-30.39,0,*70
1486893775.32,13013,11.13,74070.3,9.69,-30.05,-30.45,0,*7F
1486893776.57,13014,11.13,74068.0,9.69,-30.61,-30.83,0,*70
1486893777.8,13015,11.13,74070.8,9.69,-30.83,-31.29,0,*7C
1486893779.05,13016,11.13,74070.3,9.69,-31.33,-31.61,0,*79
1486893780.3,13017,11.13,74070.3,9.71,-30.73,-31.11,0,*73
1486893781.54,13018,11.19,74074.3,9.69,-30.23,-30.55,0,*71
1486893782.77,13019,11.13,74070.5,9.69,-29.95,-30.27,0,*70
1486893784.02,13020,11.13,74068.5,9.69,-29.89,-30.27,0,*77
1486893785.27,13021,11.13,74070.5,9.69,-30.05,-30.45,0,*7E
1486893786.52,13022,11.13,74068.5,9.71,-30.73,-31.11,0,*75
1486893787.8,13023,11.13,74070.5,9.73,-30.17,-30.73,0,*71
1486893789.09,13024,11.13,74074.3,9.73,-30.17,-30.61,0,*75
1486893790.31,13025,11.13,74070.0,9.71,-31.73,-32.01,0,*71
1486893791.54,13026,11.13,74066.8,9.71,-31.79,-32.19,0,*71
1486893792.75,13027,11.13,74070.3,9.71,-31.05,-31.57,0,*72
1486893794.03,13028,11.13,74070.0,9.73,-31.57,-31.95,0,*76
1486893795.28,13029,11.13,74068.8,9.71,-31.11,-31.57,0,*79
1486893796.53,13030,11.13,74074.0,9.71,-30.51,-30.89,0,*76
1486893797.78,13031,11.13,74068.3,9.73,-31.73,-32.01,0,*76
1486893799.03,13032,11.13,74070.0,9.71,-31.73,-31.95,0,*79
1486893800.28,13033,11.13,74068.8,9.71,-30.73,-31.11,0,*75
1486893801.51,13034,11.13,74072.3,9.71,-30.89,-31.29,0,*7C
1486893802.75,13035,11.13,74070.8,9.71,-30.61,-30.95,0,*7D
1486893804.0,13036,11.13,74068.5,9.71,-31.23,-31.73,0,*70
1486893805.22,13037,11.13,74070.0,9.71,-31.73,-32.13,0,*71
1486893806.44,13038,11.13,74068.0,9.71,-31.79,-32.29,0,*7D
1486893807.63,13039,11.13,74072.5,9.71,-31.79,-32.13,0,*75
1486893808.84,13040,11.19,74074.0,9.67,-31.45,-31.79,0,*7C
1486893810.08,13041,11.13,74070.5,9.67,-31.51,-31.91,0,*7E
1486893811.34,13042,11.13,74070.5,9.69,-30.67,-31.11,0,*7F
1486893812.61,13043,11.13,74066.0,9.69,-31.61,-31.91,0,*71
1486893813.81,13044,11.13,74068.8,9.67,-31.33,-31.67,0,*76
1486893815.06,13045,11.13,74070.3,9.69,-30.45,-30.77,0,*79
1486893816.33,13046,11.13,74070.5,9.69,-30.39,-30.77,0,*71
1486893817.56,13047,11.13,74068.5,9.71,-30.01,-30.33,0,*72
1486893818.81,13048,11.13,74068.0,9.71,-29.89,-30.39,0,*7F
1486893820.05,13049,11.13,74070.3,9.71,-30.01,-30.39,0,*76
1486893821.28,13050,11.13,74068.5,9.77,-29.45,-29.67,0,*73
1486893822.53,13051,11.13,74068.0,9.77,-29.79,-30.17,0,*72
1486893823.76,13052,11.13,74068.8,9.79,-29.73,-30.23,0,*72
1486893825.01,13053,11.13,74070.8,9.77,-29.83,-30.51,0,*77
1486893826.21,13054,11.13,74070.3,9.79,-30.45,-30.83,0,*73
1486893827.41,13055,11.13,74068.3,9.79,-30.83,-31.33,0,*72
1486893828.61,13056,11.13,74068.0,9.79,-30.45,-31.01,0,*7A
1486893829.84,13057,11.13,74068.5,9.79,-29.89,-30.23,0,*72
1486893831.07,13058,11.13,74068.3,9.79,-29.39,-29.79,0,*71
1486893832.29,13059,11.13,74070.0,9.81,-29.23,-29.61,0,*75
1486893833.52,13060,11.13,74074.0,9.83,-29.13,-29.57,0,*7B
1486893834.76,13061,11.13,74068.3,9.83,-30.55,-30.95,0,*76
1486893835.99,13062,11.13,74066.5,9.83,-30.17,-30.33,0,*7F
1486893837.2,13063,11.13,74070.5,9.83,-29.83,-30.33,0,*7B
1486893838.43,13064,11.13,74070.3,9.85,-29.57,-29.83,0,*70
1486893839.66,13065,11.13,74070.0,9.87,-29.39,-29.67,0,*71
1486893840.92,13066,11.13,74070.3,9.87,-30.17,-30.55,0,*7F
1486893842.16,13067,11.13,74068.5,9.87,-30.55,-31.23,0,*78
1486893843.38,13068,11.13,74068.3,9.87,-30.55,-31.01,0,*77
1486893844.6,13069,11.13,74066.0,9.87,-30.51,-31.01,0,*72
1486893845.88,13070,11.13,74072.5,9.85,-31.61,-31.95,0,*77
1486893847.08,13071,11.13,74068.5,9.87,-30.67,-31.01,0,*7E
1486893848.3,13072,11.13,74068.8,9.87,-30.55,-31.01,0,*7C
1486893849.5,13073,11.13,74068.0,9.87,-30.67,-31.05,0,*78
1486893850.72,13074,11.13,74070.5,9.87,-30.55,-31.05,0,*7E
1486893851.93,13075,11.13,74070.8,9.87,-30.67,-31.17,0,*7D
1486893853.13,13076,11.13,74068.5,9.87,-30.33,-30.67,0,*79
1486893854.39,13077,11.13,74068.0,9.89,-29.61,-30.05,0,*7D
1486893855.64,13078,11.13,74070.5,9.89,-30.23,-30.61,0,*7E
1486893856.87,13079,11.13,74068.8,9.89,-30.11,-30.45,0,*78
1486893858.1,13080,11.13,74072.5,9.89,-30.33,-30.67,0,*7E
1486893859.33,13081,11.13,74070.8,9.91,-30.45,-30.77,0,*76
1486893860.55,13082,11.13,74070.0,9.91,-31.17,-31.73,0,*76
1486893861.76,13083,11.13,74070.3,9.91,-30.67,-31.17,0,*73
1486893862.96,13084,11.13,74068.3,9.91,-30.33,-30.83,0,*79
1486893864.17,13085,11.13,74068.0,9.91,-32.01,-32.39,0,*78
1486893865.43,13086,11.13,74070.0,9.89,-32.51,-33.09,0,*75
1486893866.65,13087,11.13,74070.5,9.91,-31.91,-32.35,0,*7C
1486893867.9,13088,11.13,74070.3,9.89,-31.91,-32.35,0,*7A
1486893869.15,13089,11.13,74070.8,9.89,-31.91,-32.35,0,*7B
1486893870.36,13090,11.13,74072.0,9.87,-32.57,-33.15,0,*77
1486893871.58,13091,11.13,74072.3,9.87,-32.45,-33.03,0,*72
1486893872.83,13092,11.13,74070.0,9.85,-32.45,-33.03,0,*73
1486893874.08,13093,11.13,74070.5,9.85,-32.75,-33.37,0,*76
1486893875.36,13094,11.13,74070.0,9.85,-33.09,-33.73,0,*7B
1486893876.58,13095,11.13,74070.0,9.83,-33.03,-33.61,0,*75
1486893877.86,13096,11.13,74070.5,9.81,-32.75,-33.27,0,*76
1486893879.11,13097,11.13,74068.5,9.81,-32.07,-32.57,0,*74
1486893880.36,13098,11.13,74074.0,9.79,-31.73,-32.19,0,*76
1486893881.61,13099,11.13,74070.5,9.81,-31.17,-31.51,0,*7D
1486893882.89,13100,11.13,74070.5,9.81,-31.61,-31.91,0,*71
1486893884.15,13101,11.13,74066.8,9.81,-31.11,-31.45,0,*7E
1486893885.37,13102,11.13,74068.8,9.83,-31.29,-31.61,0,*72
1486893886.63,13103,11.13,74072.5,9.81,-31.85,-32.23,0,*72
1486893887.87,13104,11.13,74072.3,9.81,-32.19,-32.57,0,*70
1486893889.09,13105,11.13,74070.5,9.79,-33.15,-33.77,0,*78
1486893890.33,13106,11.13,74070.0,9.77,-33.15,-33.73,0,*71
1486893891.58,13107,11.13,74070.0,9.77,-33.49,-34.07,0,*7D
1486893892.81,13108,11.13,74072.3,9.73,-33.37,-33.95,0,*73
1486893894.08,13109,11.13,74070.5,9.73,-33.09,-33.73,0,*77
1486893895.33,13110,11.13,74068.8,9.71,-33.09,-33.77,0,*79
1486893896.59,13111,11.13,74070.8,9.71,-32.79,-33.27,0,*7B
1486893897.81,13112,11.13,74068.8,9.67,-32.39,-32.75,0,*7D
1486893899.07,13113,11.13,74066.0,9.69,-30.95,-31.29,0,*7C
1486893900.32,13114,11.13,74068.5,9.69,-30.23,-30.61,0,*7B
1486893901.56,13115,11.13,74068.8,9.71,-30.55,-30.95,0,*79
1486893902.81,13116,11.13,74068.5,9.73,-31.73,-32.01,0,*72
1486893904.06,13117,11.13,74068.3,9.73,-31.73,-32.13,0,*70
1486893905.29,13118,11.13,74070.5,9.71,-32.69,-33.27,0,*73
1486893906.51,13119,11.13,74070.8,9.71,-32.51,-33.09,0,*75
1486893907.72,13120,11.13,74068.3,9.71,-32.13,-32.51,0,*75
1486893908.94,13121,11.13,74068.3,9.69,-31.29,-31.79,0,*7E
1486893910.19,13122,11.13,74068.5,9.69,-30.95,-31.29,0,*7E
1486893911.41,13123,11.13,74070.0,9.69,-31.29,-31.79,0,*7C
1486893912.66,13124,11.13,74070.3,9.69,-30.77,-31.17,0,*79
1486893913.91,13125,11.13,74070.3,9.71,-30.51,-30.89,0,*73
1486893915.16,13126,11.13,74068.3,9.71,-30.73,-31.23,0,*71
1486893916.44,13127,11.13,74070.0,9.73,-30.95,-31.39,0,*71
1486893917.65,13128,11.13,74068.8,9.71,-32.01,-32.51,0,*7E
1486893918.87,13129,11.13,74074.8,9.73,-33.21,-33.95,0,*77
1486893920.1,13130,11.13,74068.5,9.73,-32.69,-33.21,0,*7D
1486893921.32,13131,11.13,74072.8,9.71,-32.19,-32.13,0,*79
1486893922.55,13132,11.13,74064.5,9.71,-30.33,-30.77,0,*70
1486893923.83,13133,11.13,74070.5,9.73,-30.51,-30.95,0,*7B
1486893925.08,13134,11.13,74068.0,9.73,-30.33,-30.61,0,*73
1486893926.36,13135,11.13,74068.0,9.73,-30.73,-31.39,0,*7A
1486893927.61,13136,11.13,74070.3,9.73,-31.85,-32.35,0,*7E
1486893928.86,13137,11.13,74068.0,9.77,-32.23,-32.75,0,*70
1486893930.11,13138,11.13,74072.5,9.71,-30.51,-30.89,0,*7F
1486893931.39,13139,11.13,74070.8,9.73,-29.73,-30.17,0,*73
1486893932.62,13140,11.13,74070.0,9.79,-29.35,-29.79,0,*75
1486893933.85,13141,11.13,74072.0,9.79,-29.57,-30.05,0,*73
1486893935.09,13142,11.13,74070.0,9.79,-29.57,-29.89,0,*7C
1486893936.32,13143,11.13,74068.0,9.83,-29.57,-30.05,0,*74
1486893937.54,13144,11.13,74068.8,9.83,-30.05,-30.45,0,*78
1486893938.79,13145,11.13,74072.8,9.83,-29.89,-30.39,0,*7E
1486893940.05,13146,11.13,74072.3,9.85,-30.33,-30.89,0,*79
1486893941.3,13147,11.13,74072.0,9.85,-30.89,-31.29,0,*72
1486893942.55,13148,11.13,74072.0,9.85,-30.61,-31.17,0,*76
1486893943.82,13149,11.13,74074.3,9.85,-31.39,-31.95,0,*71
1486893945.04,13150,11.13,74070.5,9.87,-30.89,-31.33,0,*7D
1486893946.27,13151,11.13,74072.3,9.87,-30.11,-30.39,0,*76
1486893947.5,13152,11.13,74070.8,9.87,-30.33,-30.73,0,*7B
1486893948.72,13153,11.13,74074.0,9.87,-31.05,-31.61,0,*7C
1486893949.94,13154,11.13,74068.8,9.87,-30.55,-31.01,0,*79
1486893951.19,13155,11.13,74070.0,9.87,-30.39,-30.89,0,*73
1486893952.43,13156,11.13,74070.3,9.89,-30.45,-30.95,0,*78
1486893953.68,13157,11.13,74072.0,9.89,-30.45,-30.95,0,*79
1486893954.91,13158,11.13,74068.3,9.91,-30.67,-31.11,0,*72
1486893956.13,13159,11.13,74070.8,9.91,-30.95,-31.33,0,*7E
1486893957.34,13160,11.13,74072.0,9.91,-30.27,-30.67,0,*7D
1486893958.56,13161,11.13,74072.3,9.91,-30.45,-30.95,0,*75
1486893959.79,13162,11.13,74068.5,9.95,-30.55,-31.17,0,*78
1486893961.02,13163,11.13,74070.5,9.95,-29.95,-30.39,0,*70
1486893962.28,13164,11.13,74070.3,9.95,-30.17,-30.73,0,*7B
1486893963.53,13165,11.13,74070.8,9.93,-30.95,-31.45,0,*72
1486893964.76,13166,11.13,74068.0,9.95,-30.73,-31.33,0,*7E
1486893966.0,13167,11.13,74070.3,9.95,-30.83,-31.23,0,*71
1486893967.22,13168,11.13,74074.3,9.95,-30.39,-30.83,0,*74
1486893968.43,13169,11.13,74070.5,9.95,-30.33,-30.83,0,*7F
1486893969.64,13170,11.13,74068.8,9.95,-30.67,-31.17,0,*7A
1486893970.87,13171,11.13,74068.3,9.99,-31.57,-32.23,0,*71
1486893972.1,13172,11.13,74070.3,9.99,-32.07,-32.51,0,*71
1486893973.32,13173,11.13,74070.3,9.99,-30.55,-31.05,0,*77
1486893974.57,13174,11.13,74070.5,9.99,-31.39,-31.91,0,*76
1486893975.82,13175,11.13,74070.0,9.99,-31.95,-32.45,0,*7B
1486893977.05,13176,11.13,74070.5,9.95,-32.39,-32.85,0,*7D
1486893978.31,13177,11.13,74070.0,9.95,-31.73,-32.07,0,*7B
1486893979.57,13178,11.13,74072.3,9.95,-31.23,-31.61,0,*72
1486893980.81,13179,11.13,74070.3,9.95,-30.51,-30.83,0,*7A
1486893982.04,13180,11.13,74072.8,9.99,-29.51,-29.83,0,*70
1486893983.27,13181,11.13,74068.8,10.03,-30.05,-30.45,0,*41
1486893984.52,13182,11.13,74072.3,10.01,-30.33,-30.95,0,*48
1486893985.74,13183,11.13,74068.5,10.03,-30.89,-31.29,0,*4C
1486893986.97,13184,11.13,74070.5,10.01,-30.67,-31.01,0,*43
1486893988.2,13185,11.13,74072.8,10.01,-30.45,-30.83,0,*49
1486893989.46,13186,11.13,74068.8,10.01,-30.33,-30.77,0,*40
1486893990.72,13187,11.13,74070.0,10.05,-30.73,-31.11,0,*40
1486893991.96,13188,11.13,74068.5,10.05,-30.89,-31.45,0,*4B
1486893993.2,13189,11.13,74074.0,10.03,-30.95,-31.45,0,*41
1486893994.4,13190,11.13,74070.5,10.05,-30.45,-31.05,0,*46
1486893995.64,13191,11.13,74070.8,10.05,-30.11,-30.55,0,*42
1486893996.88,13192,11.13,74070.3,10.03,-30.01,-30.39,0,*4C
1486893998.13,13193,11.13,74072.3,10.07,-29.83,-30.33,0,*41
1486893999.34,13194,11.13,74070.5,10.09,-29.83,-30.23,0,*49
1486894000.58,13195,11.13,74072.8,10.07,-30.33,-30.83,0,*4F
1486894001.83,13196,11.13,74068.3,10.07,-30.05,-30.45,0,*43
1486894003.04,13197,11.13,74070.8,10.09,-30.67,-31.01,0,*49
1486894004.28,13198,11.13,74068.3,10.09,-30.17,-30.67,0,*40
1486894005.54,13199,11.13,74072.8,10.11,-30.11,-30.61,0,*48
1486894006.75,13200,11.13,74070.5,10.13,-29.83,-30.23,0,*4C
1486894007.99,13201,11.13,74068.0,10.13,-30.27,-30.77,0,*4A
1486894009.23,13202,11.13,74068.8,10.13,-29.95,-30.39,0,*42
1486894010.45,13203,11.13,74070.0,10.13,-30.05,-30.45,0,*49
1486894011.73,13204,11.13,74074.5,10.15,-30.61,-30.95,0,*47
1486894012.98,13205,11.13,74068.8,10.15,-30.89,-31.33,0,*4D
1486894014.24,13206,11.13,74068.5,10.15,-30.77,-31.17,0,*49
1486894015.5,13207,11.13,74072.3,10.15,-31.29,-31.95,0,*48
1486894016.73,13208,11.13,74074.0,10.15,-31.17,-31.67,0,*47
1486894018.0,13209,11.13,74072.5,10.15,-32.69,-33.27,0,*4A
1486894019.25,13210,11.13,74068.5,10.13,-32.85,-33.49,0,*4E
1486894020.48,13211,11.13,74070.3,10.13,-31.85,-32.23,0,*41
1486894021.74,13212,11.13,74068.8,10.11,-31.85,-32.23,0,*40
1486894023.01,13213,11.13,74070.8,10.11,-32.01,-32.45,0,*4E
1486894024.29,13214,11.13,74070.5,10.11,-31.91,-32.45,0,*43
1486894025.58,13215,11.13,74068.8,10.11,-31.51,-32.07,0,*48
1486894026.87,13216,11.13,74070.8,10.11,-31.23,-31.85,0,*47
1486894028.11,13217,11.13,74072.3,10.09,-32.29,-32.97,0,*46
1486894029.37,13218,11.13,74070.8,10.09,-31.57,-32.07,0,*4A
1486894030.61,13219,11.13,74068.0,10.07,-31.79,-32.23,0,*4F
1486894031.83,13220,11.13,74072.3,10.09,-32.45,-33.15,0,*43
1486894033.09,13221,11.13,74068.3,10.07,-33.15,-33.61,0,*4B
1486894034.34,13222,11.13,74070.0,10.09,-32.07,-32.63,0,*47
1486894035.6,13223,11.13,74068.5,10.07,-32.23,-32.79,0,*45
1486894036.86,13224,11.13,74070.0,10.07,-33.21,-33.77,0,*4E
1486894038.08,13225,11.13,74068.0,10.03,-33.03,-33.61,0,*4C
1486894039.33,13226,11.13,74068.3,10.03,-33.09,-33.61,0,*45
1486894040.56,13227,11.13,74068.3,10.03,-31.79,-32.19,0,*4F
1486894041.79,13228,11.13,74074.5,10.03,-31.33,-31.85,0,*48
1486894043.02,13229,11.13,74068.0,10.03,-32.19,-32.69,0,*43
1486894044.24,13230,11.13,74070.8,10.03,-30.55,-31.05,0,*48
1486894045.5,13231,11.13,74068.0,10.03,-30.39,-30.89,0,*46
1486894046.72,13232,11.13,74068.8,10.05,-30.55,-31.05,0,*4C
1486894047.96,13233,11.13,74070.3,10.05,-31.33,-31.95,0,*45
1486894049.2,13234,11.13,74074.3,10.03,-31.85,-32.39,0,*4C
1486894050.46,13235,11.13,74070.5,10.05,-32.85,-33.49,0,*4E
1486894051.72,13236,11.06,74066.5,10.03,-32.75,-33.43,0,*4E
1486894052.95,13237,11.13,74072.0,10.05,-32.19,-33.03,0,*47
1486894054.18,13238,11.13,74070.3,10.03,-33.43,-34.13,0,*46
1486894055.4,13239,11.13,74070.8,10.03,-33.67,-34.35,0,*45
1486894056.63,13240,11.13,74068.8,9.99,-32.79,-33.37,0,*7B
1486894057.84,13241,11.13,74068.8,9.99,-32.69,-33.37,0,*7B
1486894059.07,13242,11.13,74068.8,9.99,-32.85,-33.55,0,*7E
1486894060.32,13243,11.13,74068.3,9.99,-32.79,-33.49,0,*71
1486894061.57,13244,11.13,74072.5,9.95,-32.63,-33.31,0,*7E
1486894062.8,13245,11.13,74072.3,9.95,-32.51,-33.31,0,*7E
1486894064.06,13246,11.13,74070.0,9.93,-32.57,-33.27,0,*7A
1486894065.31,13247,11.13,74068.0,9.93,-32.91,-33.43,0,*73
1486894066.54,13248,11.13,74068.5,9.93,-32.01,-32.51,0,*77
1486894067.74,13249,11.13,74068.3,9.95,-30.83,-31.33,0,*7F
1486894069.0,13250,11.13,74072.0,9.93,-31.95,-32.51,0,*70
1486894070.22,13251,11.13,74072.3,9.93,-31.29,-31.67,0,*70
1486894071.48,13252,11.13,74068.8,9.95,-30.39,-30.89,0,*74
1486894072.73,13253,11.13,74068.0,9.95,-30.89,-31.57,0,*7C
1486894073.93,13254,11.13,74068.0,9.95,-31.79,-32.39,0,*7E
1486894075.17,13255,11.06,74070.5,9.95,-31.45,-32.07,0,*7D
1486894076.4,13256,11.13,74068.5,9.95,-31.23,-31.79,0,*74
1486894077.6,13257,11.13,74074.3,9.95,-31.05,-31.45,0,*7E
1486894078.81,13258,11.13,74070.0,9.99,-30.67,-31.17,0,*7F
1486894080.04,13259,11.13,74068.3,9.99,-31.17,-31.61,0,*79
1486894081.24,13260,11.13,74070.3,9.99,-31.05,-31.45,0,*76
1486894082.46,13261,11.13,74068.8,10.01,-31.67,-32.23,0,*49
1486894083.72,13262,11.13,74068.8,10.01,-32.01,-32.63,0,*4D
1486894084.97,13263,11.13,74072.8,10.03,-30.61,-31.11,0,*4C
1486894086.25,13264,11.13,74068.3,10.01,-29.73,-30.17,0,*45
1486894087.47,13265,11.13,74072.5,10.03,-29.73,-30.11,0,*40
1486894088.73,13266,11.06,74068.3,10.05,-30.01,-30.39,0,*42
1486894089.96,13267,11.13,74070.3,10.05,-30.95,-31.33,0,*45
1486894091.2,13268,11.13,74072.0,10.05,-30.05,-30.45,0,*43
1486894092.44,13269,11.13,74068.8,10.05,-30.11,-30.61,0,*41
1486894093.7,13270,11.13,74068.3,10.07,-29.95,-30.39,0,*42
1486894094.94,13271,11.13,74070.0,10.09,-29.95,-30.61,0,*40
1486894096.17,13272,11.13,74072.0,10.09,-30.11,-30.61,0,*47
1486894097.44,13273,11.13,74074.8,10.11,-29.89,-30.27,0,*44
1486894098.73,13274,11.13,74068.3,10.11,-31.57,-32.07,0,*49
1486894099.98,13275,11.13,74070.8,10.11,-31.17,-31.73,0,*4C
1486894101.25,13276,11.13,74072.3,10.11,-32.01,-32.45,0,*4D
1486894102.5,13277,11.13,74068.5,10.11,-31.33,-31.91,0,*44